Weather reports worldwide

Advertisment
Bergamo/Orio al Serio, Italy (16076): temperature & dewpoint: 16.07.2019 21:00:00 - 22.07.2019 21:00:00 (CEST)Bergamo/Orio al Serio, Italy (16076): wind speed: 16.07.2019 21:00:00 - 22.07.2019 21:00:00 (CEST)Bergamo/Orio al Serio, Italy (16076): wind direction: 16.07.2019 21:00:00 - 22.07.2019 21:00:00 (CEST)Bergamo/Orio al Serio, Italy (16076): reduced air pressure: 16.07.2019 21:00:00 - 22.07.2019 21:00:00 (CEST)Bergamo/Orio al Serio, Italy (16076): visibility: 16.07.2019 21:00:00 - 22.07.2019 21:00:00 (CEST)Bergamo/Orio al Serio, Italy (16076): precipitation: 16.07.2019 21:00:00 - 22.07.2019 21:00:00 (CEST)
Date & Time tt [°C] td [°C] ff [km/h] ff [kn] dd ppp [hPa] vv [km] rr [mm]
22.07.2019 21:00:00 29,0 20,0 8 4 S - 8 -
22.07.2019 20:00:00 29,8 20,5 8 4 S 1020,6 8 -
22.07.2019 19:00:00 30,0 20,0 9 5 S - 8 -
22.07.2019 18:00:00 31,0 20,0 9 5 S - 8 -
22.07.2019 17:00:00 31,2 20,5 11 6 S 1021,2 8 0,0
22.07.2019 16:00:00 31,0 20,0 13 7 SSW - 9 -
22.07.2019 15:00:00 31,0 20,0 11 6 SW - 9 -
22.07.2019 14:00:00 30,3 20,2 11 6 SSW 1022,5 8 -
22.07.2019 13:00:00 30,0 20,0 9 5 - - 8 -
22.07.2019 12:00:00 29,0 20,0 8 4 - - 10 -
22.07.2019 11:00:00 28,2 19,2 2 1 - 1023,2 10 0,0
22.07.2019 10:00:00 27,0 20,0 4 2 - - 10 -
22.07.2019 09:00:00 26,0 20,0 4 2 - - 10 -
22.07.2019 08:00:00 24,1 20,7 5 3 N 1023,1 10 -
22.07.2019 07:00:00 22,0 20,0 5 3 N - 10 -
22.07.2019 06:00:00 23,0 20,0 5 3 N - 10 -
22.07.2019 05:00:00 22,4 19,8 9 5 N 1022,2 10 0,0
22.07.2019 04:00:00 23,0 20,0 5 3 NE - 10 -
22.07.2019 03:00:00 - - - - - - - -
22.07.2019 02:00:00 24,0 20,3 9 5 ESE 1022,5 12 -
22.07.2019 01:00:00 24,0 21,0 5 3 NNE - 10 -
22.07.2019 00:00:00 24,0 20,0 4 2 - - 10 -
21.07.2019 23:00:00 25,5 19,8 9 5 N 1021,0 10 0,0
21.07.2019 22:00:00 26,0 20,0 5 3 ESE - 10 -
21.07.2019 21:00:00 29,0 20,0 8 4 S - 10 -
21.07.2019 20:00:00 29,6 18,9 13 7 S 1018,8 10 -
21.07.2019 19:00:00 31,0 19,0 13 7 SSW - 10 -
21.07.2019 18:00:00 31,0 19,0 13 7 SSW - 10 -
21.07.2019 17:00:00 31,2 18,8 8 4 SSW 1018,6 10 0,0
21.07.2019 16:00:00 30,0 18,0 11 6 - - 10 -
21.07.2019 15:00:00 30,0 17,0 8 4 WSW - 10 -
21.07.2019 14:00:00 29,1 16,1 13 7 SW 1019,9 10 -
21.07.2019 13:00:00 29,0 15,0 13 7 WSW - 10 -
21.07.2019 12:00:00 28,0 14,0 15 8 W - 10 -
21.07.2019 11:00:00 27,6 14,9 15 8 WSW 1020,3 10 0,0
21.07.2019 10:00:00 26,0 18,0 8 4 W - 10 -
21.07.2019 09:00:00 25,0 18,0 5 3 E - 10 -
21.07.2019 08:00:00 22,8 18,1 5 3 N 1020,3 10 -
21.07.2019 07:00:00 21,0 18,0 8 4 NNE - 10 -
21.07.2019 06:00:00 21,0 18,0 2 1 - - 10 -
21.07.2019 05:00:00 21,7 17,2 2 1 N 1019,7 - 0,0
21.07.2019 04:00:00 - - - - - - - -
21.07.2019 03:00:00 22,0 18,0 8 4 N - 10 -
21.07.2019 02:00:00 22,7 17,6 5 3 NW 1019,6 10 -
21.07.2019 01:00:00 23,0 18,0 5 3 NW - 10 -
21.07.2019 00:00:00 24,0 18,0 4 2 - - 10 -
20.07.2019 23:00:00 24,1 17,8 4 2 - 1018,8 10 0,0
20.07.2019 22:00:00 24,0 18,0 8 4 N - 10 -
20.07.2019 21:00:00 28,0 16,0 5 3 WNW - 10 -
20.07.2019 20:00:00 28,6 17,1 9 5 W 1017,8 10 -
20.07.2019 19:00:00 30,0 15,0 8 4 - - 10 -
20.07.2019 18:00:00 30,0 15,0 9 5 SW - 10 -
20.07.2019 17:00:00 29,6 16,7 8 4 - 1018,1 10 0,0
20.07.2019 16:00:00 29,0 17,0 11 6 SSW - 10 -
20.07.2019 15:00:00 29,0 18,0 13 7 S - 10 -
20.07.2019 14:00:00 28,9 17,2 9 5 S 1018,8 10 -
20.07.2019 13:00:00 29,0 18,0 9 5 - - 10 -
20.07.2019 12:00:00 28,0 18,0 8 4 - - 10 -
20.07.2019 11:00:00 27,3 17,1 5 3 - 1019,0 10 0,0
20.07.2019 10:00:00 26,0 18,0 5 3 S - 10 -
20.07.2019 09:00:00 26,0 18,0 2 1 - - 10 -
20.07.2019 08:00:00 22,5 18,2 8 4 N 1018,3 10 -
20.07.2019 07:00:00 20,0 17,0 8 4 N - 10 -
20.07.2019 06:00:00 20,0 17,0 8 4 NNE - 10 -
20.07.2019 05:00:00 20,1 17,1 5 3 N 1017,7 10 0,0
20.07.2019 04:00:00 - - - - - - - -
20.07.2019 03:00:00 21,0 18,0 8 4 N - 10 -
20.07.2019 02:00:00 21,2 17,5 9 5 N 1017,7 10 -
20.07.2019 01:00:00 22,0 18,0 8 4 N - 10 -
20.07.2019 00:00:00 23,0 18,0 9 5 N - 10 -
19.07.2019 23:00:00 22,4 18,1 8 4 N 1016,9 10 0,0
19.07.2019 22:00:00 23,0 18,0 5 3 NE - 10 -
19.07.2019 21:00:00 27,0 16,0 9 5 S - 10 -
19.07.2019 20:00:00 27,8 16,5 15 8 SSW 1015,4 10 -
19.07.2019 19:00:00 29,0 17,0 11 6 S - 10 -
19.07.2019 18:00:00 29,0 17,0 9 5 - - 10 -
19.07.2019 17:00:00 28,5 17,0 11 6 WSW 1015,8 10 0,0
19.07.2019 16:00:00 28,0 17,0 9 5 WSW - 10 -
19.07.2019 15:00:00 28,0 17,0 8 4 - - 10 -
19.07.2019 14:00:00 27,4 16,9 9 5 WSW 1016,8 10 -
19.07.2019 13:00:00 27,0 17,0 9 5 WSW - 10 -
19.07.2019 12:00:00 26,0 17,0 4 2 - - 10 -
19.07.2019 11:00:00 25,1 17,6 8 4 S 1017,3 10 0,0
19.07.2019 10:00:00 24,0 16,0 4 2 - - 10 -
19.07.2019 09:00:00 22,0 15,0 4 2 - - 10 -
19.07.2019 08:00:00 20,6 15,3 5 3 NNE 1016,7 10 -
19.07.2019 07:00:00 19,0 14,0 8 4 N - 10 -
19.07.2019 06:00:00 19,0 15,0 9 5 N - 10 -
19.07.2019 05:00:00 19,5 15,0 4 2 - 1016,1 10 0,0
19.07.2019 04:00:00 19,0 15,0 8 4 N - 10 -
19.07.2019 03:00:00 19,0 15,0 8 4 N - 10 -
19.07.2019 02:00:00 19,0 14,8 4 2 - 1015,4 10 -
19.07.2019 01:00:00 20,0 15,0 9 5 N - 10 -
19.07.2019 00:00:00 20,0 15,0 9 5 N - 10 -
18.07.2019 23:00:00 19,4 16,5 9 5 N 1014,6 10 0,0
18.07.2019 22:00:00 21,0 16,0 9 5 N - 10 -
18.07.2019 21:00:00 - - - - - - - -
18.07.2019 20:00:00 24,6 16,9 2 1 - 1013,0 - -
18.07.2019 19:00:00 24,0 18,0 8 4 N - - -
18.07.2019 18:00:00 23,0 19,0 9 5 ENE - - -
18.07.2019 17:00:00 21,6 18,8 8 4 NW 1013,2 10 0,0
18.07.2019 16:00:00 26,0 17,0 4 2 - - 10 -
18.07.2019 15:00:00 27,0 16,0 9 5 SSE - 10 -
18.07.2019 14:00:00 26,5 13,4 8 4 - 1013,1 10 -
18.07.2019 13:00:00 - - - - - - - -
18.07.2019 12:00:00 26,0 15,0 5 3 - - 10 -
18.07.2019 11:00:00 25,0 13,4 5 3 - 1013,4 10 0,0
18.07.2019 10:00:00 24,0 16,0 5 3 E - 10 -
18.07.2019 09:00:00 22,0 16,0 4 2 - - 10 -
18.07.2019 08:00:00 21,0 15,5 9 5 ESE 1012,4 10 -
18.07.2019 07:00:00 20,0 15,0 4 2 - - 10 -
18.07.2019 06:00:00 19,0 15,0 8 4 N - 10 -
18.07.2019 05:00:00 19,4 14,9 4 2 NW 1011,5 10 0,0
18.07.2019 04:00:00 21,0 14,0 2 1 - - 10 -
18.07.2019 03:00:00 21,0 15,0 9 5 NNE - 10 -
18.07.2019 02:00:00 20,9 14,4 8 4 N 1011,6 10 -
18.07.2019 01:00:00 21,0 14,0 8 4 N - 10 -
18.07.2019 00:00:00 22,0 14,0 8 4 NNW - 10 -
17.07.2019 23:00:00 22,3 13,9 9 5 N 1011,6 10 0,0
17.07.2019 22:00:00 24,0 15,0 5 3 NW - 10 -
17.07.2019 21:00:00 26,0 12,0 15 8 W - 10 -
17.07.2019 20:00:00 27,8 10,1 16 9 WSW 1010,6 10 -
17.07.2019 19:00:00 29,0 11,0 15 8 SW - 10 -
17.07.2019 18:00:00 29,0 14,0 16 9 W - 10 -
17.07.2019 17:00:00 28,9 13,6 16 9 SW 1011,7 10 0,0
17.07.2019 16:00:00 29,0 14,0 16 9 WSW - 10 -
17.07.2019 15:00:00 28,0 14,0 15 8 SW - 10 -
17.07.2019 14:00:00 28,1 14,5 9 5 WSW 1013,0 10 -
17.07.2019 13:00:00 28,0 16,0 9 5 - - 10 -
17.07.2019 12:00:00 27,0 15,0 9 5 S - 10 -
17.07.2019 11:00:00 25,8 13,7 8 4 SSW 1014,2 10 0,0
17.07.2019 10:00:00 25,0 15,0 4 2 - - 10 -
17.07.2019 09:00:00 23,0 16,0 4 2 - - 10 -
17.07.2019 08:00:00 20,9 15,4 8 4 N 1014,3 10 -
17.07.2019 07:00:00 18,0 15,0 8 4 NNE - 10 -
17.07.2019 06:00:00 17,0 15,0 5 3 NNE - 10 -
17.07.2019 05:00:00 17,7 14,6 5 3 N 1014,3 10 0,0
17.07.2019 04:00:00 18,0 15,0 8 4 NNE - 10 -
17.07.2019 03:00:00 18,0 15,0 5 3 N - 10 -
17.07.2019 02:00:00 18,4 14,6 9 5 N 1014,8 10 -
17.07.2019 01:00:00 19,0 15,0 9 5 N - 10 -
17.07.2019 00:00:00 20,0 15,0 8 4 NNE - 10 -
16.07.2019 23:00:00 20,2 15,1 11 6 N 1014,4 10 0,0
16.07.2019 22:00:00 21,0 15,0 4 2 - - 10 -
16.07.2019 21:00:00 25,0 12,0 9 5 SSW - 10 -

tt = temperature
td = dewpoint
ff = wind speed
dd = wind direction
ppp = reduced air pressure
vv = visibility
rr = precipitation

Next stations